SL-14 DEB, 45330

Orbit data source: Space-Track

SL-14 DEB, 45330 is space debris in LEO originally from a launch on Thu, 15 Aug 1991 UTC launched from the Plesetsk Missile And Space Complex (PKMTR). Debris objects in space refer to the collection of defunct objects orbiting the Earth. Examples of debris include non-operational satellites, rocket bodies, and fragments generated from explosions, collisions, or faulty payload assembly.

Loading next visibility...
Identifier
45330, 1991-056BU
Orbit
LEO
Country
Flag of CISCIS
Related business
Manufacturer
Unknown
Mission
Spacecraft
Bus & Motor
Unknown
Mass
Unknown
Launch date (UTC)
1991-08-15 (34 years ago)
Launch vehicle
Unknown
Launch site
Plesetsk Missile And Space Complex (PKMTR)
Object type
Payload
Rocket body
Debris
Shape & HBR
Unknown shape, 0.1 m
Radar Cross Section
Small (<0.1 m²)

Expand to show TLE details & history
Last TLE update: 2 days ago

TLE from 2 days ago
0 SL-14 DEB
1 45330U 91056BU  26034.40045990  .00001537  00000-0  27814-2 0  9992
2 45330  82.5633 183.9643 0082334 210.5907 149.0413 13.39233713291157
Epoch: 2026-02-03T09:36Z
TLE epoch observation values (Epoch: 2026-02-03T09:36:39.735Z)
Latitude
-0.00007°
Longitude
-93.78321°
Altitude
1,168.002 km
Speed
7.244 km/s
True Right ascension
12h 15m 51s
True Declination
0° 00' 00"
Sunlit
Object was in full shadow at epoch
Visualization orbit readout
Latitude
Unknown
Longitude
Unknown
Altitude
Unknown
Speed
Unknown
Apparent Right ascension
Unknown
Apparent Declination
Unknown
Sunlit
N/A
Visualization observer readout
Local Sidereal Time
02:25:21
Azimuth
Unknown
Elevation
Unknown
Doppler factor
Unknown
Orbital elements
Apogee altitude
1,170.995 km
Perigee altitude
1,047.701 km
Semi-major axis
7,487.485 km
Eccentricity
0.00823
Inclination
82.5633°
RAAN
183.9643°
Arg. of periapsis
210.5907°
True anomaly
149.52239°
Mean anomaly
149.0413°
Eccentric anomaly
149.28227°
Mean motion
3.34996 °/min
Orbital period
107.46 mins
BSTAR
0.0027814
Loading maneuver chart data...
Computing Atmospheric mass density...
Loading historical data...
Loading historical data...
Loading historical data...
Loading historical data...
Loading historical data...
Loading historical data...
Loading historical data...

Documentation

Showing up to 5 results
|